Tracking 31027 objects as of 19-Jul-2025
HD Live streaming from Space Station
objects crossing your sky now

KX-09

Track KX-09 now!
10-day predictions


NORAD ID: 44520
Int'l Code: 2019-058B
Perigee: 580.6 km
Apogee: 596.0 km
Inclination: 97.8 °
Period: 96.3 minutes
Semi major axis: 6959 km
RCS: Unknown
Launch date: August 30, 2019
Source: People's Republic of China (PRC)
Launch site: Jiuquan Satellite Launch Center, China (JSC)
Your satellite tracking list
STARLINK-30236
Track 1 satellite(s)




NASA's NSSDC Master Catalog

Two Line Element Set (TLE):
1 44520U 19058B   25199.84092381  .00001556  00000-0  14605-3 0  9995
2 44520  97.7861 210.1178 0011029  25.5430 334.6333 14.95395249320198
Source of the keplerian elements: AFSPC